CW2969 Weather Reports


time (UTC)temp
C
wind
direction
speed
KPH
gust
KPH
rain 1hr
cm
rain 24hr
cm
rain mn
cm
humidity
%
barometer
mb
20260510061032 22 237 0.0 0.0 0.00 0.69 0.00 79 1009.8
20260510060532 22 215 0.0 1.6 0.00 0.69 0.00 79 1009.8
20260510060032 22 171 0.0 1.6 0.00 0.69 0.00 79 1009.9
20260510055532 22 145 0.0 0.0 0.00 0.69 0.00 79 1009.6
20260510054531 22 145 0.0 6.4 0.00 0.69 0.00 79 1009.6
20260510053531 22 121 0.0 6.4 0.00 0.69 0.00 79 1009.7
20260510053031 22 142 4.8 6.4 0.00 0.69 0.00 80 1009.8
20260510052531 22 111 3.2 3.2 0.00 0.69 0.00 80 1009.9
20260510052031 22 111 0.0 0.0 0.00 0.69 0.00 80 1009.9
20260510051031 22 111 0.0 0.0 0.00 0.69 0.00 80 1009.8
20260510050531 22 111 0.0 0.0 0.00 0.69 0.00 80 1009.8
20260510050031 22 111 0.0 0.0 0.00 0.69 0.00 80 1009.8
20260510045531 22 111 0.0 0.0 0.00 0.69 0.69 80 1009.6
20260510045031 22 111 0.0 0.0 0.00 0.69 0.69 80 1009.6
20260510044531 22 111 0.0 0.0 0.00 0.69 0.69 79 1009.5
20260510044031 22 111 0.0 0.0 0.00 0.69 0.69 79 1009.6
20260510043531 23 111 0.0 0.0 0.00 0.69 0.69 79 1009.7
20260510043031 23 111 0.0 0.0 0.00 0.69 0.69 79 1009.6
20260510042530 23 111 0.0 0.0 0.00 0.69 0.69 79 1009.6
20260510042030 23 111 0.0 3.2 0.00 0.69 0.69 79 1009.6
20260510041030 23 111 0.0 0.0 0.00 0.69 0.69 79 1009.5
20260510040530 23 111 0.0 0.0 0.00 0.69 0.69 79 1009.5
20260510040030 23 111 0.0 0.0 0.00 0.69 0.69 78 1009.5
20260510035030 24 111 0.0 0.0 0.00 0.69 0.69 78 1009.2
20260510034530 24 111 0.0 0.0 0.00 0.69 0.69 78 1009.2
20260510034030 24 111 0.0 0.0 0.00 0.69 0.69 77 1009.1
20260510033530 24 111 0.0 0.0 0.00 0.69 0.69 77 1009.1
20260510033030 25 111 0.0 0.0 0.00 0.69 0.69 77 1009.1
20260510032530 25 111 0.0 0.0 0.00 0.69 0.69 77 1009.1
20260510032030 25 111 0.0 0.0 0.00 0.69 0.69 77 1009.0
20260510031530 25 111 0.0 0.0 0.00 0.69 0.69 76 1008.9
20260510030530 25 111 0.0 0.0 0.00 0.69 0.69 76 1008.7
20260510030030 25 111 0.0 0.0 0.00 0.69 0.69 75 1008.6
20260510025530 25 111 0.0 0.0 0.00 0.69 0.69 75 1008.5
20260510025029 26 111 0.0 0.0 0.00 0.69 0.69 75 1008.4
20260510024530 26 111 0.0 0.0 0.00 0.69 0.69 75 1008.3
20260510024029 26 111 0.0 0.0 0.00 0.69 0.69 75 1008.3
20260510023530 26 111 0.0 1.6 0.00 0.69 0.69 74 1008.4
20260510023029 26 111 0.0 3.2 0.00 0.69 0.69 74 1008.3
20260510021529 27 128 0.0 1.6 0.00 0.69 0.69 73 1008.3
20260510021029 27 128 0.0 0.0 0.00 0.69 0.69 73 1008.2
20260510020029 27 128 0.0 6.4 0.00 0.69 0.69 73 1008.0
20260510015529 27 128 1.6 6.4 0.00 0.69 0.69 73 1007.9
20260510015029 27 155 0.0 1.6 0.00 0.69 0.69 72 1007.9
20260510014029 28 140 8.0 11.3 0.00 0.69 0.69 72 1007.8
20260510012529 28 134 4.8 6.4 0.00 0.69 0.69 71 1007.6
20260510011529 28 108 0.0 6.4 0.00 0.69 0.69 70 1007.5
20260510010028 29 143 0.0 3.2 0.00 0.69 0.69 69 1007.4
20260510005528 30 143 1.6 3.2 0.00 0.69 0.69 69 1007.5
20260510005028 30 133 0.0 0.0 0.00 0.69 0.69 69 1007.5
20260510004528 30 133 0.0 0.0 0.00 0.69 0.69 68 1007.5
20260510004028 30 90 0.0 0.0 0.00 0.69 0.69 69 1007.4
20260510002528 30 153 0.0 1.6 0.00 0.69 0.69 67 1007.3
20260510002028 30 105 0.0 4.8 0.00 0.69 0.69 68 1007.2
20260510001528 30 94 1.6 4.8 0.00 0.69 0.69 67 1007.3
20260510001028 30 119 0.0 4.8 0.00 0.69 0.69 67 1007.2
20260510000528 30 119 1.6 4.8 0.00 0.69 0.69 68 1007.2
20260510000028 30 127 0.0 1.6 0.00 0.69 0.69 66 1007.2
20260509235528 30 113 0.0 0.0 0.00 0.69 0.69 66 1007.1
20260509235028 30 115 0.0 3.2 0.00 0.69 0.69 67 1007.1
20260509234528 30 116 0.0 3.2 0.00 0.69 0.69 65 1007.0
20260509234027 30 139 0.0 4.8 0.00 0.69 0.69 66 1007.0
20260509233527 30 97 1.6 4.8 0.00 0.69 0.69 66 1006.9
20260509233027 30 123 0.0 4.8 0.00 0.69 0.69 66 1006.9
20260509232528 30 101 0.0 4.8 0.00 0.69 0.69 65 1006.9
20260509232027 30 119 0.0 4.8 0.00 0.69 0.69 66 1006.9
20260509230527 30 347 0.0 4.8 0.00 0.69 0.69 65 1007.0
20260509225527 30 117 3.2 6.4 0.00 0.69 0.69 65 1006.9
20260509225027 30 107 6.4 6.4 0.00 0.69 0.69 63 1006.9
20260509224527 30 156 3.2 3.2 0.00 0.69 0.69 64 1007.0
20260509224027 30 118 0.0 4.8 0.00 0.69 0.69 64 1006.9
20260509223527 30 95 0.0 9.7 0.00 0.69 0.69 64 1006.9
20260509223027 30 101 9.7 9.7 0.00 0.69 0.69 65 1006.9
20260509222527 30 107 0.0 4.8 0.00 0.69 0.69 65 1006.9
20260509222027 29 144 0.0 6.4 0.00 0.69 0.69 65 1006.8
20260509221527 29 96 3.2 9.7 0.00 0.69 0.69 64 1006.9
20260509221027 28 103 4.8 9.7 0.00 0.69 0.69 65 1006.7
20260509220527 28 116 1.6 3.2 0.00 0.69 0.69 66 1006.6
20260509220027 28 173 0.0 4.8 0.00 0.69 0.69 68 1006.6
20260509215527 27 229 3.2 4.8 0.00 0.69 0.69 69 1006.8
20260509215027 27 202 1.6 8.0 0.00 0.69 0.69 71 1006.8
20260509214026 25 251 1.6 3.2 0.00 0.69 0.69 73 1006.9
20260509213527 25 132 1.6 6.4 0.00 0.69 0.69 74 1007.0
20260509213027 24 215 4.8 6.4 0.00 0.69 0.69 75 1007.1
20260509212526 23 195 3.2 12.9 0.03 0.69 0.69 75 1007.0
20260509212027 23 178 3.2 12.9 0.08 0.69 0.69 76 1007.0
20260509211526 22 119 1.6 11.3 0.18 0.69 0.69 77 1007.2
20260509210027 22 232 1.6 8.0 0.61 0.69 0.69 79 1007.2
20260509205526 22 45 0.0 1.6 0.61 0.69 0.69 80 1007.2
20260509205026 22 183 0.0 4.8 0.61 0.69 0.69 80 1007.2
20260509204526 21 125 3.2 16.1 0.61 0.69 0.69 79 1007.1
20260509204026 22 130 11.3 16.1 0.61 0.69 0.69 78 1007.4
20260509203526 22 302 1.6 11.3 0.61 0.69 0.69 78 1007.5
20260509203026 22 230 1.6 11.3 0.61 0.69 0.69 76 1007.6
20260509202526 23 160 6.4 11.3 0.58 0.66 0.66 75 1007.9
20260509202026 25 135 0.0 16.1 0.53 0.61 0.61 72 1008.7
20260509201526 26 130 6.4 17.7 0.43 0.51 0.51 68 1008.7
20260509201025 28 115 9.7 17.7 0.15 0.23 0.23 71 1009.1
20260509200526 30 24 3.2 17.7 0.00 0.08 0.08 66 1008.5
20260509200026 31 5 4.8 6.4 0.00 0.08 0.08 66 1008.3
20260509195526 31 101 4.8 6.4 0.00 0.08 0.08 67 1008.0
20260509195025 31 122 0.0 12.9 0.00 0.08 0.08 68 1007.9
20260509194525 31 155 3.2 12.9 0.00 0.08 0.08 68 1007.8
20260509194025 31 160 1.6 6.4 0.00 0.08 0.08 68 1007.8
20260509193525 31 146 6.4 6.4 0.00 0.08 0.08 68 1007.9
20260509192525 31 222 3.2 14.5 0.00 0.08 0.08 69 1008.1
20260509192025 31 91 4.8 14.5 0.00 0.08 0.08 69 1008.1
20260509191024 31 140 11.3 11.3 0.00 0.08 0.08 69 1008.3
20260509190524 31 155 3.2 6.4 0.00 0.08 0.08 70 1008.2
20260509190024 31 238 0.0 6.4 0.00 0.08 0.08 71 1008.3
20260509185524 31 211 3.2 6.4 0.00 0.08 0.08 71 1008.4
20260509184524 30 333 0.0 9.7 0.00 0.08 0.08 72 1008.6
20260509184024 30 167 1.6 9.7 0.00 0.08 0.08 72 1008.8
20260509183524 30 219 0.0 4.8 0.00 0.08 0.08 74 1008.9
20260509182524 30 115 4.8 11.3 0.00 0.08 0.08 74 1009.1
20260509182024 30 184 1.6 4.8 0.00 0.08 0.08 75 1009.3
20260509181524 29 167 4.8 9.7 0.00 0.08 0.08 75 1009.3
20260509181024 29 119 4.8 9.7 0.00 0.08 0.08 75 1009.3
20260509180023 29 268 3.2 6.4 0.00 0.08 0.08 76 1009.3
20260509175523 29 319 1.6 4.8 0.00 0.08 0.08 76 1009.4
20260509175023 28 284 4.8 11.3 0.00 0.08 0.08 76 1009.3
20260509174523 28 233 1.6 11.3 0.00 0.08 0.08 76 1009.4
20260509174024 28 244 0.0 6.4 0.00 0.08 0.08 77 1009.7
20260509173524 28 330 1.6 4.8 0.00 0.08 0.08 77 1009.9
20260509173023 28 321 3.2 4.8 0.00 0.08 0.08 77 1009.9
20260509172523 28 213 0.0 4.8 0.00 0.08 0.08 77 1009.9
20260509172023 28 207 3.2 4.8 0.00 0.08 0.08 78 1009.8
20260509171523 28 180 1.6 4.8 0.00 0.08 0.08 78 1009.7
20260509170523 27 306 3.2 4.8 0.00 0.08 0.08 78 1009.7
20260509170023 27 154 1.6 4.8 0.00 0.08 0.08 79 1009.8
20260509165523 27 265 3.2 9.7 0.00 0.08 0.08 79 1009.9
20260509164523 27 147 4.8 9.7 0.00 0.08 0.08 79 1010.0
20260509163523 26 187 4.8 14.5 0.00 0.08 0.08 80 1010.1
20260509163023 26 136 1.6 9.7 0.00 0.08 0.08 80 1010.0
20260509162522 26 184 1.6 3.2 0.00 0.08 0.08 80 1010.1
20260509161523 26 284 1.6 8.0 0.00 0.08 0.08 80 1009.9
20260509160522 26 188 1.6 6.4 0.00 0.08 0.08 80 1009.9
20260509155022 25 141 11.3 11.3 0.00 0.08 0.08 79 1009.8
20260509154022 25 92 0.0 6.4 0.00 0.08 0.08 79 1009.8
20260509153522 25 147 3.2 6.4 0.00 0.08 0.08 79 1009.8
20260509153022 25 119 4.8 8.0 0.00 0.08 0.08 79 1009.9
20260509152522 25 139 3.2 8.0 0.00 0.08 0.08 78 1009.9
20260509152022 25 186 0.0 4.8 0.00 0.08 0.08 78 1009.9
20260509151522 25 174 1.6 8.0 0.00 0.08 0.08 77 1010.0
20260509151022 25 113 3.2 8.0 0.00 0.08 0.08 77 1010.0
20260509150522 24 186 1.6 6.4 0.00 0.08 0.08 77 1009.9
20260509150022 24 116 3.2 6.4 0.03 0.08 0.08 76 1010.0
20260509145522 24 218 3.2 6.4 0.03 0.08 0.08 76 1009.9
20260509144522 23 237 1.6 11.3 0.03 0.08 0.08 76 1009.8
20260509143522 23 95 6.4 12.9 0.03 0.08 0.08 78 1009.8
20260509143022 23 178 0.0 12.9 0.03 0.08 0.08 78 1009.8
20260509142522 23 173 3.2 9.7 0.03 0.08 0.08 78 1009.3
20260509142022 23 205 1.6 11.3 0.03 0.08 0.08 78 1009.3
20260509141021 23 223 3.2 8.0 0.03 0.08 0.08 78 1009.6
20260509140521 23 145 1.6 1.6 0.03 0.08 0.08 78 1009.8
20260509140021 23 114 0.0 3.2 0.00 0.05 0.05 78 1009.9
20260509135521 23 114 1.6 3.2 0.00 0.05 0.05 78 1009.9
20260509135021 23 114 0.0 0.0 0.00 0.05 0.05 78 1009.9
20260509134521 23 114 0.0 0.0 0.00 0.05 0.05 78 1009.9
20260509134021 23 114 0.0 0.0 0.00 0.05 0.05 78 1009.9
20260509133021 23 114 0.0 0.0 0.00 0.05 0.05 79 1009.9
20260509132521 23 114 0.0 0.0 0.00 0.05 0.05 79 1009.9
20260509132021 23 114 0.0 0.0 0.00 0.05 0.05 79 1010.0
20260509131521 23 114 0.0 1.6 0.00 0.05 0.05 79 1009.9
20260509131021 23 114 0.0 1.6 0.00 0.05 0.05 79 1009.8
20260509130520 23 121 0.0 0.0 0.00 0.05 0.05 79 1009.7
20260509125521 23 122 0.0 1.6 0.00 0.05 0.05 79 1009.5
20260509125020 23 347 0.0 0.0 0.00 0.05 0.05 79 1009.2
20260509124520 23 347 0.0 0.0 0.00 0.05 0.05 79 1009.1
20260509124020 23 347 0.0 0.0 0.00 0.05 0.05 79 1009.2
20260509123020 23 68 0.0 0.0 0.00 0.05 0.05 79 1009.3
20260509122521 23 68 0.0 0.0 0.00 0.05 0.05 79 1009.3
20260509122020 23 68 0.0 0.0 0.00 0.05 0.05 79 1009.4
20260509121520 23 68 0.0 0.0 0.00 0.05 0.05 79 1009.4
20260509121020 23 68 0.0 0.0 0.00 0.05 0.05 79 1009.6
20260509120020 23 68 0.0 0.0 0.00 0.05 0.05 80 1009.5
20260509115520 23 68 0.0 0.0 0.00 0.05 0.05 80 1009.5
20260509115020 23 68 0.0 0.0 0.00 0.05 0.05 80 1009.6
20260509114520 23 68 0.0 1.6 0.00 0.05 0.05 80 1009.7
20260509113020 23 41 0.0 1.6 0.00 0.05 0.05 80 1010.1
20260509112520 23 46 0.0 0.0 0.00 0.05 0.05 80 1009.9
20260509112019 23 46 0.0 0.0 0.00 0.05 0.05 80 1010.0
20260509111520 23 46 0.0 1.6 0.00 0.05 0.05 80 1010.2
20260509111020 23 46 0.0 3.2 0.00 0.05 0.05 80 1010.2
20260509110520 23 46 0.0 6.4 0.00 0.05 0.05 80 1010.2
20260509110019 23 31 1.6 6.4 0.00 0.05 0.05 80 1010.2
20260509105519 23 59 0.0 3.2 0.00 0.05 0.05 80 1010.4
20260509105019 23 80 0.0 3.2 0.00 0.05 0.05 80 1010.4
20260509104519 23 70 3.2 3.2 0.00 0.05 0.05 80 1010.5
20260509103519 23 73 0.0 3.2 0.00 0.05 0.05 81 1010.4
20260509103019 23 5 0.0 3.2 0.00 0.05 0.05 81 1010.4
20260509102519 23 32 0.0 1.6 0.00 0.05 0.05 81 1010.4
20260509102019 23 32 0.0 0.0 0.00 0.05 0.05 81 1010.1
20260509101519 23 32 0.0 0.0 0.00 0.05 0.05 81 1009.9
20260509101019 23 32 0.0 0.0 0.00 0.05 0.05 81 1009.6
20260509100019 23 32 1.6 1.6 0.03 0.05 0.05 81 1009.3
20260509095519 23 32 0.0 0.0 0.03 0.05 0.05 81 1009.3
20260509095019 23 32 0.0 0.0 0.03 0.05 0.05 81 1009.2
20260509094018 23 32 0.0 0.0 0.05 0.05 0.05 81 1009.2
20260509093519 23 32 0.0 0.0 0.05 0.05 0.05 81 1009.2
20260509093018 23 32 0.0 0.0 0.05 0.05 0.05 81 1009.2
20260509092518 23 32 0.0 0.0 0.05 0.05 0.05 81 1009.3
20260509092018 23 32 0.0 0.0 0.05 0.05 0.05 81 1009.1
20260509090518 23 32 0.0 0.0 0.05 0.05 0.05 81 1009.0
20260509090017 23 32 0.0 0.0 0.03 0.03 0.03 81 1009.0
20260509085518 23 32 0.0 0.0 0.03 0.03 0.03 81 1009.1
20260509085018 23 32 0.0 0.0 0.03 0.03 0.03 81 1009.1
20260509084518 23 32 0.0 0.0 0.03 0.03 0.03 81 1009.2
20260509084017 23 32 0.0 3.2 0.00 0.00 0.00 81 1009.2
20260509083518 23 17 0.0 3.2 0.00 0.00 0.00 81 1009.3
20260509083017 23 82 0.0 1.6 0.00 0.00 0.00 81 1009.4
20260509082517 23 101 0.0 1.6 0.00 0.00 0.00 82 1009.5
20260509082017 23 90 0.0 1.6 0.00 0.00 0.00 82 1009.6
20260509081017 23 16 0.0 1.6 0.00 0.00 0.00 82 1009.6
20260509075517 23 115 3.2 4.8 0.00 0.00 0.00 82 1009.2
20260509075017 23 133 0.0 3.2 0.00 0.00 0.00 82 1009.2
20260509074517 23 133 0.0 4.8 0.00 0.00 0.00 82 1009.1
20260509074017 23 115 3.2 4.8 0.00 0.00 0.00 82 1009.2
20260509073516 23 193 0.0 1.6 0.00 0.00 0.00 82 1009.4
20260509073017 23 193 0.0 1.6 0.00 0.00 0.00 82 1009.5
20260509072016 23 252 0.0 0.0 0.00 0.00 0.00 82 1009.3
20260509071516 23 252 0.0 0.0 0.00 0.00 0.00 82 1009.5
20260509071016 23 252 0.0 0.0 0.00 0.00 0.00 82 1009.6
20260509070516 23 252 0.0 0.0 0.00 0.00 0.00 82 1009.7
20260509070016 23 252 0.0 4.8 0.00 0.00 0.00 82 1009.7
20260509065516 23 300 0.0 4.8 0.00 0.00 0.00 82 1009.4
20260509065016 23 165 0.0 3.2 0.00 0.00 0.00 82 1009.2
20260509064516 23 128 1.6 4.8 0.00 0.00 0.00 82 1009.3
20260509064016 23 178 0.0 4.8 0.00 0.00 0.00 82 1009.2
20260509063516 23 126 1.6 3.2 0.00 0.00 0.00 82 1009.2
20260509063016 23 127 0.0 3.2 0.00 0.00 0.00 82 1009.2
20260509062516 23 192 1.6 6.4 0.00 0.00 0.00 82 1009.4
20260509062016 23 148 4.8 6.4 0.00 0.00 0.00 82 1009.4
20260509061516 23 182 1.6 4.8 0.00 0.00 0.00 82 1009.3